Regional Weather Roundup
Issued by NWS

Home | Current Version | Previous Version | Graphics & Text | Print | Product List | Glossary On
Versions: 1 2 3 4 5 6 7 8 9 10 11 12 13 14 15 16 17 18 19 20 21 22 23 24 25 26 27 28 29 30 31 32 33 34 35 36 37 38 39 40 41 42 43 44 45 46 47 48 49 50
500
ASUS44 KMEG 040610
RWRTN
TENNESSEE HOURLY STATE WEATHER ROUNDUP
NATIONAL WEATHER SERVICE MEMPHIS TN
1200 AM CST SUN DEC 04 2016

TNZ002-004-019-021-049-052-054-088>092-040700-
WEST TENNESSEE

CITY           SKY/WX    TMP DP  RH WIND       PRES   REMARKS
MEMPHIS INTL   LGT RAIN  42  41  96 E13       30.11F
NWS MEMPHIS      N/A     41 N/A N/A MISG        N/A
JACKSON        RAIN      41  50 100 E8        30.16F
DYERSBURG      CLOUDY   N/A N/A N/A E6        30.15F
UNION CITY     CLOUDY    37  37 100 CALM      30.16F
PARIS          CLOUDY    36  36 100 E7        30.18S WCI  30
HUNTINGDON     CLOUDY    39  37  93 E7        30.17F FOG     WCI  34
LEXINGTON      CLOUDY    39  37  93 NE3       30.15F
$$

TNZ008-025-027-028-033-062-065-066-040700-
NORTH MIDDLE TENNESSEE

CITY           SKY/WX    TMP DP  RH WIND       PRES   REMARKS
NASHVILLE      LGT RAIN  40  37  89 E6        30.20F
PORTLAND       CLOUDY    39  36  87 E5        30.19F
CLARKSVILLE    CLOUDY    40  34  79 SE8       30.20F WCI  34
SMYRNA         LGT RAIN  39  38  96 E3        30.21F
CROSSVILLE     MIX PCPN  37  35  92 E5        30.17F FOG     WCI  33
$$

TNZ061-075-076-078-094-096-097-040700-
SOUTH MIDDLE TENNESSEE

CITY           SKY/WX    TMP DP  RH WIND       PRES   REMARKS
FAYETTEVILLE   CLOUDY    41  41 100 NE6       30.16F FOG
TULLAHOMA      MOCLDY    37  37 100 E3        30.17F
WINCHESTER     MOCLDY    39  39 100 SE8       30.16F WCI  34
MCMINNVILLE    MOCLDY    39  39 100 NE6       30.17F WCI  35
COLUMBIA         N/A    N/A N/A N/A E7        30.16F
SHELBYVILLE    CLOUDY    43  41  93 E6        30.19F
$$

TNZ017-018-042-046-047-040700-
NORTHEAST TENNESSEE

CITY           SKY/WX    TMP DP  RH WIND       PRES   REMARKS
TRI CITIES     CLOUDY    40  31  70 CALM      30.22F
ELIZABETHTON   CLOUDY    39  34  81 CALM      30.21S
$$

TNZ012-013-036-069-073-074-040700-
CENTRAL EAST TENNESSEE

CITY           SKY/WX    TMP DP  RH WIND       PRES   REMARKS
KNOXVILLE      LGT RAIN  40  36  86 NE5       30.22F
OAK RIDGE      LGT RAIN  41  37  86 CALM      30.24F
DOWNTOWN KNOXV CLOUDY    41  39  93 CALM      30.24F
GATLINBURG     CLOUDY    37  36  93 CALM      30.23S
MORRISTOWN     CLOUDY    41  34  75 E3        30.21F
JACKSBORO      CLOUDY    39  39 100 CALM      30.26F
$$

TNZ083-085-099-040700-
SOUTHEAST TENNESSEE

CITY           SKY/WX    TMP DP  RH WIND       PRES   REMARKS
CHATTANOOGA    LGT RAIN  41  38  89 NE7       30.22F FOG
$$

SKY/WX REPORTED AS FAIR MEANS FEW OR NO CLOUDS BELOW
12 THOUSAND FEET.





USA.gov is the U.S. government's official web portal to all federal, state and local government web resources and services.